Location: ??
(35.1714°N, 128.2806°E)
Time: 15:27:47
(UTC+00:00)

CZ-4B R/B - Pass Details

Date: 29 October 2020
Orbit: 388 x 461 km, 97.6° (Epoch: 01 December)

Event Time Altitude Azimuth Distance (km) Brightness Sun altitude
Rises 19:48:28 0° 149° (SSE) 2,481 5.6 -24.6°
Reaches altitude 10° 19:50:37 10° 140° (SE) 1,609 4.7 -24.1°
Maximum altitude 19:53:47 34° 74° (ENE) 776 3.1 -23.5°
Drops below altitude 10° 19:56:57 10° 8° (N) 1,605 4.3 -22.8°
Enters shadow 19:57:25 - 5° (N) 1,790 4.5 -22.7°
